Flag for U.S.A. Weather past 2 weeks in Brockton, Massachusetts, U.S.A.

Now
66 °F

Mild.


Feels Like: 66 °F
Forecast: 57 / 73 °F
Wind: 10 mph from South

Location: East Milton

Current Time: Jul 3, 2015 at 10:42:04 PM

Latest Report: Jul 3, 2015 at 9:54 PM


Visibility: N/A

Pressure: 30.02 "Hg

Humidity: 63%

Dew point: 53 °F

Location of BrocktonLocation

Historic Weather in Brockton — Graph

°F

Brockton temperature yesterday

Maximum temperature yesterday: 77 °F (at 1:54 PM)
Minimum temperature yesterday: 60 °F (at 5:54 AM)
Average temperature yesterday: 68 °F

Past Weeks' High & Low Weather Summary

 TemperatureHumidityPressure
High84 °F (Jun 22, 2:54 PM)100% (Jun 21, 1:54 AM)30.21 "Hg (Jun 21, 1:54 AM)
Low50 °F (Jun 28, 8:54 PM)39% (Jul 3, 1:54 PM)29.66 "Hg (Jun 21, 3:54 PM)
Average67 °F73%29.93 "Hg
* Reported Jun 18 8:54 PM — Jul 3 8:54 PM, Brockton, Weather by CustomWeather, © 2015

Note: Actual official high and low records may vary slightly from our data, if they occured in-between our weather recording intervals... More about our weather records

Advertising

Brockton weather history for previous 24 hours

 ConditionsComfort  
Time TempWeatherWind HumidityBarometerVisibility
8:54 PM
Fri, Jul 3
68 °FMild.6 mph63%29.99 "HgN/A
7:54 PM69 °FMild.7 mph53%29.99 "HgN/A
6:54 PM73 °FMild.8 mph44%29.99 "HgN/A
5:54 PM75 °FMild.10 mph43%29.97 "HgN/A
4:54 PM78 °FWarm.7 mph40%29.98 "HgN/A
3:54 PM77 °FWarm.6 mph40%29.97 "HgN/A
2:54 PM77 °FWarm.12 mph40%29.98 "HgN/A
1:54 PM77 °FPleasantly warm.7 mph39%29.98 "HgN/A
12:54 PM75 °FMild.6 mph42%29.98 "HgN/A
11:54 AM75 °FMild.5 mph42%29.98 "HgN/A
10:54 AM72 °FMild.8 mph44%29.98 "HgN/A
9:54 AM70 °FMild.6 mph47%29.98 "HgN/A
8:54 AM68 °FMild.6 mph57%29.98 "HgN/A
7:54 AM64 °FMild.6 mph70%29.97 "HgN/A
6:54 AM59 °FCool.9 mph81%29.95 "HgN/A
5:54 AM57 °FCool.12 mph90%29.93 "HgN/A
4:54 AM59 °FCool.10 mph81%29.91 "HgN/A
3:54 AM61 °FCool.9 mph72%29.90 "HgN/A
2:54 AM62 °FCool.10 mph80%29.89 "HgN/A
1:54 AM64 °FMild.9 mph81%29.90 "HgN/A
12:54 AM65 °FMild.10 mph78%29.90 "HgN/A
11:54 PM
Thu, Jul 2
67 °FMild.9 mph73%29.89 "HgN/A
10:54 PM67 °FMild.7 mph73%29.90 "HgN/A
Weather by CustomWeather, © 2015

See weather overviewHow to use our weather pages